Weather in Novoukrainka

Ukraine / Odesa District     46°48′54″N   30°17′12″E
temp.,
°C
wind,
m/s
gust,
m/s
humid.,
%
clouds,
%
prec.,
mm/h
press.,
hPa
HPBL,
m
11 may, tue
tue1100:00+10w22613 0.0 102219
03:00+9n22662 0.0 102111
06:00+9nne346457 0.0 102157
09:00+14n56525 0.0 1020577
12:00+18nnw564429 0.0 10191145
15:00+21n564762 0.0 10171311
18:00+21n56526 0.0 10151424
21:00+15ne498341 1.1 1015181
12 may, wed
wed1200:00+14e4888100 0.0 1015334
03:00+12ene3591100 0.0 1014323
06:00+9ene5107561 0.0 1014355
09:00+12ene566614 0.0 1014718
12:00+15ene445267 0.0 10131289
15:00+17ene324435 0.0 10121900
18:00+14ese466197 0.0 1012802
21:00+11ese22705 0.0 101214
13 may, thu
thu1300:00+11ese2267100 0.0 101263
03:00+10ese3572100 0.0 1011108
06:00+11ese3675100 0.0 1011228
09:00+15se676329 0.0 1011695
12:00+16sse5668100 0.1 1011968
15:00+18sse785992 0.3 10101321
18:00+16sse696731 0.0 1009850
21:00+12sse479065 0.0 1009152
14 may, fri
fri1400:00+10sse369268 0.0 1009112
03:00+10s3391100 0.0 100945
06:00+10s2291100 0.0 100935
09:00+16ssw2370100 0.0 1009383
12:00+21sse3457100 0.0 10091183
15:00+21s665469 0.1 10091498
18:00+17s5776100 0.3 1009424
21:00+15s369067 1.0 1010199
15 may, sat
sat1500:00+13ssw36944 0.1 1010107
03:00+13ssw23929 0.1 101036
06:00+12w22895 0.0 101121
09:00+18nnw236913 0.0 1012532
12:00+22nnw335319 0.0 10121307
15:00+23nnw234578 1.5 10122023
18:00+21ene225655 0.0 101244
21:00+16se228160 1.4 101326